Torna al catalogo

SL-16 DEB

AttivoLEO
NORAD 39850·DEBRIS·🇷🇺 Russia

Lanciato Dec 25, 1992 da Baikonur Cosmodrome

Loading…

Prossimi Passaggi (prossime 24 ore)

TLE

ObsoletoSource: Space-Track

Epoca: Aug 31, 2026, 23:40 UTC

1 39850U 92093LC  26243.98645660  .00000471  00000-0  29086-3 0  9999
2 39850  71.3393 335.3799 0091968 280.3850  78.6915 14.08181171347003

Traccia SL-16 DEB in tempo reale con AllMySat

Download on the App Store